Location: Hannover
(52.3723°N, 9.7339°E)
Time: 14:46:25
(UTC+02:00)

ISS - Pass Details

Date: 30 March 2017
Orbit: 399 x 409 km, 51.6° (Epoch: 30 March)

Event Time Altitude Azimuth Distance (km) Brightness Sun altitude
Rises 20:48:23 0° 221° (SW) 2,304 0.3 -9.2°
Reaches altitude 10° 20:50:39 10° 209° (SSW) 1,451 -0.9 -9.5°
Maximum altitude 20:53:25 26° 150° (SSE) 831 -2.7 -9.9°
Enters shadow 20:55:20 16° 101° (ESE) 1,170 -2.1 -10.2°
